Location: Leipzig
(51.3392°N, 12.3528°E)
Time: 14:34:46
(UTC+02:00)

ISS - Visible Passes

Search period start: 24 July 2017 00:00
Search period end: 03 August 2017 00:00
Orbit: 400 x 408 km, 51.6° (Epoch: 24 July)

Date Brightness Start Highest point End Pass type
(mag) Time Alt. Az. Time Alt. Az. Time Alt. Az.
24 Jul -3.9 01:00:17 10° W 01:03:33 84° N 01:06:50 10° E visible
24 Jul -4.0 02:36:48 10° W 02:40:03 71° SSW 02:43:18 10° ESE visible
24 Jul -2.6 04:13:36 10° W 04:16:10 22° SW 04:18:44 10° SSE visible
24 Jul -3.1 22:32:01 10° SW 22:34:58 32° SSE 22:37:55 10° E visible
25 Jul -4.0 00:07:59 10° WSW 00:11:14 87° S 00:14:31 10° E visible
25 Jul -4.0 01:44:29 10° W 01:47:45 87° S 01:51:01 10° ESE visible
25 Jul -3.2 03:21:04 10° W 03:24:02 32° SSW 03:26:59 10° SE visible
25 Jul -4.0 23:15:41 10° WSW 23:18:56 71° SSE 23:22:11 10° E visible
26 Jul -3.9 00:52:09 10° W 00:55:26 84° N 00:56:44 33° E visible
26 Jul -1.5 02:28:40 10° W 02:29:17 14° W 02:29:17 14° W visible
26 Jul -3.7 22:23:28 10° SW 22:26:39 53° SSE 22:29:50 10° E visible
26 Jul -3.9 23:59:48 10° W 00:03:05 83° N 00:05:20 18° E visible
27 Jul -2.3 01:36:19 10° W 01:37:56 26° W 01:37:56 26° W visible
27 Jul -3.9 23:07:27 10° W 23:10:43 89° NNW 23:13:59 10° E visible
28 Jul -3.9 00:43:58 10° W 00:46:57 71° WSW 00:46:57 71° WSW visible
28 Jul -3.9 22:15:07 10° WSW 22:18:22 77° SSE 22:21:38 10° E visible
28 Jul -3.9 23:51:37 10° W 23:54:52 86° N 23:56:05 36° E visible
29 Jul -1.4 01:28:07 10° W 01:28:42 14° W 01:28:42 14° W visible
29 Jul -3.8 22:59:13 10° W 23:02:29 82° N 23:05:16 14° E visible
30 Jul -2.8 00:35:43 10° W 00:37:53 36° W 00:37:53 36° W visible
30 Jul -3.8 22:06:50 10° W 22:10:06 86° N 22:13:22 10° E visible
30 Jul -4.0 23:43:19 10° W 23:46:35 76° SSW 23:47:07 58° SE visible
31 Jul -3.9 22:50:56 10° W 22:54:12 90° NNE 22:56:21 20° E visible
01 Aug -2.0 00:27:28 10° W 00:28:58 22° W 00:28:58 22° W visible
01 Aug -3.8 21:58:30 10° W 22:01:47 83° N 22:05:03 10° E visible
01 Aug -3.7 23:35:01 10° W 23:38:12 52° SSW 23:38:14 52° SSW visible
02 Aug -3.9 22:42:35 10° W 22:45:50 70° SSW 22:47:30 26° ESE visible
